Probability
0 0 0 0 0 0 0 0 0 0 0 0 0 0 0 0 0 0 0 0 0 0 0 0 0 0 0 3 0 0 0 0 0 0 0 0 0 0
0 0 0 0 0 0 0 0 0 0 0 0 0 0 0 0 0 0 0 0 0 0 0 0 0 0 0 0 0 0 0 0 3 3 3 3 3 3
0 0 0 0 0 0 0 0 0 0 0 0 0 0 0 0 0 0 0 0 0 0 0 0 0 0 0 0 0 0 0 0 0 0 0 0 0 0
0 0 0 0 0 0 0 0 0 0 0 0 0 0 0 0 0 0 0 0 0 0 0 0 0 0 0 0 0 0 0 0 0 0 0 0 0 0
0 0 0 0 0 0 0 0 0 0 0 0 0 0 0 0 0 0 0 0 0 0 0 0 0 0 0 0 0 0 0 0 0 0 0 0 0 0
0 0 0 0 0 0 0 0 0 0 0 0 0 0 0 0 0 0 0 0 0 0 0 0 0 0 0 0 0 0 0 0 0 0 0 0 0 0
3 0 0 0 0 0 0 0 0 0 0 0 0 0 0 0 0 0 0 0 0 0 0 0 0 0 0 0 0 0 0 0 0 0 0 0 0 0
3 3 3 0 0 0 0 0 0 0 0 0 0 0 0 0 0 0 0 0 0 0 0 0 0 0 0 0 0 0 0 0 0 0 0 0 0 0
3 3 3 0 0 0 0 0 0 0 0 0 0 0 0 0 0 0 0 0 0 0 0 0 0 0 0 0 0 0 0 0 0 0 0 0 0 0
3 3 0 0 0 0 0 0 0 0 0 0 0 0 0 0 0 0 0 0 0 0 0 0 0 0 0 0 0 0 0 0 0 0 0 0 0 0
0 0 0 0 0 0 0 0 0 0 0 0 0 0 0 0 0 0 0 0 0 0 0 0 0 0 0 0 0 0 0 0 0 0 0 0 0 0
0 0 0 0 0 0 0 0 0 0 0 0 0 0 0 0 0 0 0 0 0 0 0 0 0 0 0 0 0 0 0 0 0 0 0 0 0 0
0 0 0 0 0 0 0 0 0 0 0 0 0 0 0 0 0 0 0 0 0 0 0 0 0 0 0 0 0 0 0 0 0 0 0 0 0 0
0 0 0 0 0 0 0 0 0 0 0 0 0 0 0 0 0 0 0 0 0 0 0 0 0 0 0 0 0 0 0 0 0 0 0 0 0 0
0 0 0 0 0 0 0 0 0 0 0 0 0 0 0 0 0 0 0 0 0 0 0 0 0 0 0 0 0 0 0 0 0 0 0 0 0 0
0 0 0 0 0 0 0 0 0 0 0 0 0 0 0 0 0 0 0 0 0 0 0 0 0 0 0 0 0 0 0 0 0 0 0 0 0 0
0 0 0 0 0 0 0 0 0 0 0 0 0 0 0 0 0 0 0 0 0 0 0 0 0 0 0 0 0 0 0 0 0 0 0 0 0 0
0 0 0 0 0 0 0 0 0 0 0 0 0 0 0 0 0 0 0 0 0 0 0 0 0 0 0 0 0 0 0 0 0 0 0 0 0 0
0 0 0 0 0 0 0 0 0 0 0 0 0 0 0 0 0 0 0 0 0 0 0 0 0 0 0 0 0 0 0 0 0 0 0 0 0 0
0 0 0 0 0 0 0 0 0 0 0 0 0 0 0 0 0 0 0 0 0 0 0 0 0 0 0 0 0 0 0 0 0 0 0 0 0 0
0 0 0 0 0 0 0 0 0 0 0 0 0 0 0 0 0 0 0 0 0 0 0 0 0 0 0 0 0 0 0 0 0 0 0 0 0 0
0 0 0 0 0 0 0 0 0 0 0 0 0 0 0 0 0 0 0 0 0 0 0 0 0 0 0 0 0 0 0 0 0 0 0 0 0 0
0 0 0 0 0 0 0 0 0 0 0 0 0 0 0 0 0 0 0 0 0 0 0 0 0 0 0 0 0 0 0 0 0 0 0 0 0 0
Height
5782 5781 5780 5779 5778 5777 5776 5776 5776 5776 5776 5775 5774 5773 5772 5772 5772 5772 5772 5772 5772 5772 5772 5772 5772 5773 5773 5774 5774 5775 5775 5776 5776 5776 5777 5778 5779 5780
5776 5775 5774 5773 5772 5771 5770 5769 5769 5769 5768 5768 5767 5766 5765 5765 5765 5765 5765 5765 5765 5765 5765 5765 5765 5765 5766 5767 5767 5768 5768 5769 5769 5770 5770 5771 5772 5773
5770 5769 5768 5767 5766 5765 5764 5763 5762 5761 5760 5760 5759 5758 5757 5757 5757 5757 5757 5757 5757 5757 5757 5758 5758 5758 5759 5759 5760 5761 5761 5762 5762 5763 5763 5764 5765 5766
5763 5762 5761 5760 5759 5758 5757 5756 5755 5754 5753 5752 5751 5750 5750 5749 5749 5749 5749 5749 5749 5749 5750 5750 5750 5750 5751 5752 5753 5753 5754 5755 5755 5756 5757 5757 5758 5759
5757 5755 5754 5753 5752 5751 5750 5749 5748 5746 5745 5745 5743 5742 5742 5741 5741 5741 5741 5741 5741 5741 5741 5741 5742 5742 5743 5744 5745 5746 5746 5747 5748 5749 5750 5750 5751 5752
5749 5748 5747 5746 5745 5744 5742 5741 5740 5739 5738 5737 5735 5734 5733 5733 5733 5733 5733 5733 5733 5733 5733 5733 5733 5734 5735 5736 5737 5737 5738 5739 5740 5741 5742 5743 5744 5745
5742 5740 5739 5738 5736 5735 5734 5733 5732 5731 5730 5728 5727 5726 5725 5725 5725 5725 5725 5724 5724 5724 5724 5725 5725 5726 5726 5727 5728 5729 5730 5730 5732 5733 5734 5736 5737 5738
5734 5732 5731 5729 5728 5727 5725 5724 5723 5722 5721 5720 5718 5717 5717 5716 5716 5716 5716 5717 5717 5717 5717 5717 5717 5718 5718 5719 5719 5720 5721 5722 5723 5724 5725 5727 5729 5730
5726 5724 5723 5721 5720 5718 5716 5715 5713 5712 5711 5710 5709 5708 5708 5708 5708 5708 5708 5709 5709 5709 5709 5710 5710 5710 5710 5710 5711 5711 5712 5713 5714 5715 5716 5718 5720 5722
5718 5716 5715 5713 5711 5709 5707 5706 5704 5702 5701 5701 5700 5700 5699 5699 5699 5700 5700 5700 5701 5701 5701 5702 5702 5702 5702 5702 5703 5703 5704 5705 5706 5707 5708 5710 5711 5713
5710 5708 5706 5704 5702 5700 5699 5697 5695 5693 5692 5691 5690 5690 5690 5690 5690 5691 5691 5692 5693 5693 5693 5693 5694 5694 5694 5695 5695 5695 5696 5697 5698 5699 5700 5701 5702 5704
5702 5700 5698 5695 5693 5691 5688 5687 5685 5684 5683 5682 5681 5680 5680 5680 5681 5681 5682 5683 5684 5685 5685 5685 5685 5685 5686 5687 5687 5687 5688 5689 5690 5691 5692 5692 5694 5695
5694 5692 5690 5687 5685 5682 5680 5678 5676 5675 5674 5673 5672 5672 5671 5671 5672 5672 5673 5674 5675 5676 5676 5676 5677 5677 5677 5678 5679 5679 5679 5680 5681 5682 5683 5684 5685 5686
5686 5684 5682 5679 5677 5674 5672 5670 5668 5666 5665 5664 5663 5663 5663 5663 5663 5663 5664 5665 5665 5666 5667 5668 5668 5668 5668 5669 5670 5671 5671 5672 5673 5674 5675 5676 5677 5678
5678 5676 5674 5671 5669 5667 5665 5662 5660 5658 5657 5656 5655 5655 5655 5655 5655 5655 5655 5656 5656 5657 5658 5659 5659 5660 5660 5661 5662 5662 5663 5664 5664 5665 5666 5667 5668 5669
5670 5668 5666 5664 5661 5659 5657 5655 5653 5651 5649 5648 5647 5647 5646 5646 5647 5647 5647 5648 5648 5649 5650 5650 5651 5651 5652 5652 5653 5654 5654 5655 5656 5657 5657 5658 5659 5660
5662 5661 5658 5656 5654 5652 5650 5648 5646 5644 5642 5640 5639 5639 5638 5638 5639 5639 5639 5640 5640 5641 5642 5642 5642 5643 5643 5644 5644 5645 5646 5647 5647 5648 5648 5649 5650 5651
5655 5653 5651 5649 5647 5645 5643 5641 5639 5636 5635 5633 5632 5631 5631 5631 5631 5631 5632 5632 5633 5633 5633 5634 5634 5634 5634 5635 5635 5636 5637 5638 5639 5639 5639 5640 5641 5642
5648 5646 5644 5642 5639 5637 5636 5634 5631 5629 5627 5626 5625 5624 5624 5624 5624 5624 5624 5625 5625 5625 5625 5625 5625 5625 5626 5627 5628 5627 5628 5629 5629 5630 5630 5631 5631 5632
5640 5639 5637 5635 5632 5630 5628 5626 5624 5622 5620 5619 5618 5617 5617 5617 5617 5617 5617 5617 5617 5617 5617 5617 5617 5617 5617 5618 5619 5619 5619 5619 5619 5620 5620 5621 5621 5622
5633 5631 5629 5627 5625 5623 5621 5619 5617 5615 5613 5612 5611 5610 5610 5610 5610 5610 5609 5609 5609 5609 5609 5609 5609 5609 5609 5609 5610 5610 5610 5609 5610 5610 5610 5611 5611 5611
5626 5624 5622 5620 5618 5616 5614 5612 5610 5608 5607 5605 5605 5604 5603 5603 5602 5602 5602 5602 5602 5602 5602 5601 5601 5600 5600 5600 5600 5600 5600 5600 5600 5599 5599 5600 5600 5601
5618 5616 5615 5613 5611 5609 5607 5605 5603 5601 5600 5599 5598 5597 5596 5596 5595 5595 5594 5594 5594 5594 5593 5593 5593 5592 5592 5592 5591 5591 5591 5590 5590 5590 5590 5590 5590 5591
Wind_Speed
22 22 22 22 21 21 21 21 22 23 23 23 24 24 24 24 24 24 24 24 24 25 25 25 24 24 24 24 23 23 24 24 23 23 23 23 22 22
22 22 22 22 21 21 21 23 24 24 24 24 25 25 26 26 26 25 25 25 24 25 25 26 26 25 25 25 24 24 23 23 23 24 23 23 22 23
22 22 22 21 21 22 22 23 24 25 25 25 25 26 26 27 27 27 26 26 25 25 25 25 26 26 25 25 25 25 23 23 23 23 23 22 22 23
22 22 22 22 21 22 23 23 24 25 25 25 26 26 26 26 26 26 26 26 26 25 26 25 26 26 25 25 25 25 24 24 24 23 23 23 24 23
23 23 23 23 23 23 24 24 24 24 25 25 26 26 27 27 26 26 26 26 25 25 25 25 26 26 25 25 26 26 25 25 25 24 24 24 24 23
24 24 24 25 24 24 25 25 25 25 26 26 26 27 27 26 26 26 26 27 27 26 26 26 26 26 26 26 26 25 26 26 26 26 25 25 24 24
26 26 26 26 26 26 26 27 27 27 27 27 27 27 27 27 27 26 26 26 26 25 25 25 26 26 26 26 27 26 26 27 26 26 26 26 25 25
26 26 27 27 27 27 27 28 29 29 29 28 28 27 27 27 27 26 25 24 24 24 24 24 25 25 25 26 26 25 25 25 26 27 26 26 26 26
27 27 27 27 28 28 28 29 30 30 30 29 28 27 26 27 27 26 25 25 24 25 25 24 24 24 24 25 26 25 25 25 25 26 26 26 27 27
27 27 28 28 28 28 28 28 30 30 29 29 27 26 26 26 26 26 26 25 25 25 25 25 25 24 24 25 25 25 24 24 24 24 25 25 26 26
27 27 28 28 28 28 28 28 28 28 28 29 28 27 27 26 26 26 26 26 25 25 26 25 25 25 24 25 25 24 24 24 24 24 24 25 26 26
27 27 27 27 27 27 28 27 27 26 27 27 28 28 27 26 25 26 26 26 26 25 25 25 24 24 24 25 25 25 24 24 24 24 24 25 26 26
27 27 27 27 26 26 27 26 26 27 27 27 26 27 27 26 26 26 26 26 26 25 25 24 24 24 25 24 24 24 24 24 24 24 25 25 25 26
27 27 27 27 26 26 27 26 26 26 26 27 27 26 26 26 25 25 24 25 25 25 25 25 24 24 25 24 23 23 23 24 24 23 24 25 24 25
27 27 27 27 27 27 27 26 26 25 25 25 25 25 25 25 24 24 24 24 24 24 25 25 24 24 25 25 24 23 23 23 24 24 24 25 26 26
26 26 27 27 27 27 27 26 26 26 26 25 25 25 25 25 24 24 24 23 23 23 24 24 24 24 25 25 24 24 24 24 24 25 25 26 26 26
26 25 26 26 27 27 27 26 26 26 25 26 26 25 24 24 23 23 24 24 23 23 24 24 25 25 26 26 26 25 25 25 25 26 26 26 27 26
25 25 25 26 26 26 26 26 26 26 25 25 24 23 22 21 22 22 22 22 22 23 23 24 25 25 26 26 26 26 26 25 25 26 27 27 27 27
26 25 25 25 25 25 25 25 26 26 25 24 22 21 21 21 21 22 22 22 22 22 23 24 24 24 25 25 26 26 26 26 26 26 26 26 27 28
26 25 25 25 24 24 24 24 25 25 24 23 22 21 21 21 21 21 22 22 22 22 23 23 23 23 23 25 26 26 26 27 27 28 28 28 29 29
25 25 24 24 24 24 24 24 24 23 22 21 21 21 20 20 21 21 21 22 22 22 22 22 23 23 24 25 26 27 28 28 28 29 29 29 30 30
25 24 24 24 24 25 24 24 23 22 21 21 21 21 21 21 22 22 21 21 22 22 23 23 24 24 25 26 26 27 28 28 29 29 29 29 29 30
25 25 24 25 25 25 24 24 24 23 21 21 21 22 22 22 21 22 22 22 23 23 24 24 25 25 26 26 26 26 26 27 28 28 28 28 29 29
Wind_Direction
289 289 288 285 286 285 282 279 279 279 280 281 281 280 280 280 278 278 278 277 277 276 275 275 274 273 271 270 269 269 268 268 269 269 268 268 267 266
288 288 288 287 285 284 282 281 279 280 281 281 281 280 280 280 279 279 278 277 276 277 276 274 273 272 270 269 269 268 267 267 268 269 268 267 267 264
288 288 287 288 285 286 284 283 282 282 282 282 282 282 280 279 278 278 278 276 277 276 276 273 270 269 269 268 268 266 266 267 269 269 268 267 267 265
289 288 287 286 285 285 285 285 285 285 284 284 282 282 281 281 278 276 276 276 275 275 275 273 270 268 268 267 266 266 266 267 268 267 267 266 266 265
288 288 287 287 286 285 285 286 286 287 286 286 284 282 281 279 278 276 276 276 275 276 273 272 270 270 269 267 266 267 267 266 266 264 265 265 264 264
287 288 288 288 286 284 284 285 286 287 287 286 285 282 280 278 278 276 276 276 274 274 273 272 271 270 268 267 268 267 267 266 265 264 263 264 263 262
287 287 288 289 286 285 285 285 285 285 287 286 284 281 279 277 276 276 277 276 275 274 274 274 273 271 268 266 266 266 265 265 264 262 261 262 262 262
289 287 288 289 287 286 286 286 287 286 286 285 283 282 280 277 276 277 276 275 274 274 274 273 273 272 269 267 266 264 263 262 261 261 261 260 261 262
289 288 287 288 288 286 286 286 286 286 286 285 282 281 279 277 276 275 275 274 274 274 274 274 273 272 269 269 268 267 264 263 262 260 260 261 261 262
290 290 289 290 289 288 287 286 286 286 285 284 282 279 276 275 275 274 274 273 273 273 273 273 272 271 270 270 270 267 265 264 264 262 262 260 261 261
290 290 290 291 291 289 288 287 287 287 285 285 282 279 276 274 273 273 272 273 274 274 274 273 272 270 270 270 270 267 264 264 265 264 263 262 261 261
290 290 290 291 293 293 291 288 287 285 284 285 283 280 278 275 273 272 273 273 273 272 273 273 272 270 269 269 269 267 265 265 264 265 264 264 263 262
289 289 290 290 293 294 294 291 288 287 285 284 283 281 279 277 275 273 273 273 272 271 271 272 272 272 270 269 268 266 265 265 263 264 265 264 264 263
289 289 289 290 291 294 295 294 292 290 288 286 284 281 279 277 276 274 272 269 270 270 270 270 271 270 270 269 268 266 264 264 264 262 264 265 265 264
288 290 291 291 290 292 294 295 294 292 290 288 285 281 279 277 276 274 272 271 270 268 268 270 271 270 269 268 268 266 265 264 264 265 265 266 266 266
288 291 292 291 290 291 293 295 294 292 289 289 287 283 280 277 273 271 271 272 270 269 269 270 271 270 269 268 269 267 267 266 266 266 267 267 266 265
290 292 293 293 292 291 290 292 294 293 291 289 286 283 279 276 273 271 271 272 271 270 270 271 271 270 270 269 269 268 266 266 267 267 266 266 267 266
290 292 294 294 294 292 289 290 291 291 291 289 287 283 279 276 274 272 272 273 272 272 271 270 271 271 270 269 269 268 267 266 266 266 268 267 267 266
292 292 295 295 294 293 291 291 292 290 288 287 286 284 280 277 276 274 273 273 273 273 272 272 271 270 269 268 269 269 268 267 267 268 267 267 268 266
291 292 293 293 294 294 293 292 292 290 287 286 284 283 280 276 275 275 273 273 274 275 274 273 272 271 271 272 270 269 269 268 268 268 268 269 269 268
290 290 291 292 292 293 293 293 292 291 288 285 285 283 279 277 277 277 276 276 276 277 276 274 273 273 273 274 274 271 269 270 271 271 269 270 271 270
289 289 288 290 291 292 292 292 291 290 288 284 283 282 281 280 279 278 277 277 277 277 276 276 276 276 276 276 275 273 271 271 272 271 270 270 272 271
287 288 287 288 290 291 291 290 289 288 286 284 282 282 282 281 280 279 277 277 278 278 278 277 277 278 278 277 276 275 273 273 272 271 271 272 273 272